Location: Quebec
(46.8000°N, 71.2500°W)
Time: 05:37:39
(UTC-04:00)

ISS - Pass Details

Date: 10 October 2017
Orbit: 400 x 408 km, 51.6° (Epoch: 24 October)

Event Time Altitude Azimuth Distance (km) Brightness Sun altitude
Rises 19:41:50 0° 295° (WNW) 2,328 1.5 -17.1°
Reaches altitude 10° 19:43:55 10° 295° (WNW) 1,468 0.2 -17.4°
Maximum altitude 19:47:12 84° 210° (SSW) 413 -3.9 -18.0°
Enters shadow 19:47:43 60° 128° (SE) 469 -3.9 -18.1°
